Regional Weather Roundup
Issued by NWS

Home | Current Version | Previous Version | Text Only | Print | Product List | Glossary On
Versions: 1 2 3 4 5 6 7 8 9 10 11 12 13 14 15 16 17 18 19 20 21 22 23 24 25 26 27
000
ASUS44 KBMX 301110
RWRAL

ALABAMA REGIONAL WEATHER ROUNDUP
NATIONAL WEATHER SERVICE BIRMINGHAM AL
600 AM CDT SAT JUL 30 2016

NOTE: "FAIR" INDICATES FEW OR NO CLOUDS BELOW 12,000 FEET
WITH NO SIGNIFICANT WEATHER AND/OR OBSTRUCTIONS TO VISIBILITY.

THE REMARK "TC" DENOTES TEMPERATURE IN DEGREES CELSIUS.

ALZ001>011-014-016>018-020-301200-
NORTH ALABAMA

CITY           SKY/WX    TMP DP  RH WIND       PRES   REMARKS
MUSCLE SHOALS  PTCLDY    71  68  90 CALM      30.02R
HUNTSVILLE     CLOUDY    73  67  81 SE3       30.00R
DECATUR        CLOUDY    71  70  96 N3        30.01R
HALEYVILLE     FAIR      71  70  96 CALM      30.04R
GADSDEN        MOCLDY    72  71  97 CALM      30.01R
$$

ALZ012-013-022-023-030>036-040>044-301200-
WEST CENTRAL ALABAMA

CITY           SKY/WX    TMP DP  RH WIND       PRES   REMARKS
TUSCALOOSA     PTCLDY    74  73  97 CALM      30.00R
$$

ALZ015-024>027-033>036-040>044-301200-
CENTRAL ALABAMA

CITY           SKY/WX    TMP DP  RH WIND       PRES   REMARKS
BIRMINGHAM     PTCLDY    78  71  79 SW7       30.04R
MONTGOMERY     CLEAR     76  71  85 CALM      30.01R
SHELBY CO ARPT PTCLDY    74  71  91 CALM      30.02R
MAXWELL AFB    CLEAR     74  73  97 S1        30.01R
GREENVILLE     FAIR      74  71  91 CALM      30.02R
$$

ALZ019-021-028-029-037-038-045>048-301200-
EAST CENTRAL ALABAMA

CITY           SKY/WX    TMP DP  RH WIND       PRES   REMARKS
ANNISTON       MOCLDY    72  70  93 CALM      30.02R
ALEXANDER CITY PTCLDY    73  73 100 CALM      30.03R
AUBURN         CLEAR     74  72  93 W5        30.04R
$$

ALZ051>064-301200-
SOUTHWEST ALABAMA

CITY           SKY/WX    TMP DP  RH WIND       PRES   REMARKS
MOBILE         PTCLDY    75  74  96 CALM      30.03R
BROOKLEY FIELD CLEAR     77  76  96 W3        30.03R
EVERGREEN      CLEAR     72  70  93 CALM      30.02R
$$

ALZ049-050-065>069-301200-
SOUTHEAST ALABAMA

CITY           SKY/WX    TMP DP  RH WIND       PRES   REMARKS
DOTHAN         CLEAR     75  73  93 W5        30.06R
OZARK          CLEAR     73  73 100 CALM      30.02R
TROY           CLEAR     72  71  97 CALM      30.03R
EUFAULA        FAIR      73  71  93 CALM      30.01R
$$




USA.gov is the U.S. government's official web portal to all federal, state and local government web resources and services.